Flag for Canada Weather past 2 weeks in Whistler, British Columbia, Canada

Now
55 °F

Cool.


Feels Like: 55 °F
Forecast: 53 / 64 °F
Wind: 2 mph from Northeast

Location: Squamish Airport

Current Time: Sep 23, 2014 at 3:55:44 AM

Latest Report: Sep 23, 2014 at 3:00 AM


Visibility: N/A

Pressure: 29.87 "Hg

Humidity: 95%

Dew point: 53 °F

Location of WhistlerLocation

Historic Weather in Whistler — Graph

°F

Whistler temperature yesterday

Maximum temperature yesterday: 72 °F (at 3:00 PM)
Minimum temperature yesterday: 53 °F (at 6:00 AM)
Average temperature yesterday: 61 °F

Past Weeks' High & Low Weather Summary

 TemperatureHumidityPressure
High83 °F (Sep 21, 2:00 PM)100% (Sep 22, 11:00 PM)30.37 "Hg (Sep 22, 11:00 PM)
Low42 °F (Sep 11, 6:00 AM)10% (Sep 10, 3:00 PM)29.67 "Hg (Sep 18, 5:00 AM)
Average61 °F67%29.94 "Hg
* Reported Sep 8 2:00 AM — Sep 23 2:00 AM, Whistler, Weather by CustomWeather, © 2014

Note: Actual official high and low records may vary slightly from our data, if they occured in-between our weather recording intervals... More about our weather records

Advertising

Whistler weather history for previous 24 hours

 ConditionsComfort  
Time TempWeatherWind HumidityBarometerVisibility
2:00 AM
Sep 23
57 °FCool.No wind94%29.89 "HgN/A
1:00 AM58 °FCool.1 mph94%29.89 "HgN/A
12:00 AM57 °FCool.No wind94%29.89 "HgN/A
11:00 PM
Sep 22
56 °FCool.1 mph100%29.90 "HgN/A
10:00 PM58 °FCool.No wind93%29.92 "HgN/A
9:00 PM59 °FCool.1 mph94%29.92 "HgN/A
8:00 PM61 °FCool.No wind84%29.92 "HgN/A
7:00 PM63 °FMild.3 mph83%29.91 "HgN/A
6:00 PM66 °FMild.6 mph70%29.90 "HgN/A
5:00 PM66 °FMild.7 mph73%29.90 "HgN/A
4:00 PM71 °FMild.9 mph53%29.89 "HgN/A
3:00 PM72 °FMild.9 mph57%29.89 "HgN/A
2:00 PM70 °FMild.7 mph63%29.90 "HgN/A
1:00 PM68 °FMild.9 mph65%29.91 "HgN/A
12:00 PM69 °FMild.7 mph65%29.91 "HgN/A
11:00 AM66 °FMild.8 mph73%29.92 "HgN/A
10:00 AM63 °FMild.2 mph78%29.92 "HgN/A
9:00 AM58 °FCool.No wind88%29.90 "HgN/A
8:00 AM57 °FCool.1 mph89%29.88 "HgN/A
7:00 AM54 °FCool.1 mph94%29.88 "HgN/A
6:00 AM53 °FCool.No wind87%29.88 "HgN/A
5:00 AM54 °FCool.No wind92%29.87 "HgN/A
4:00 AM54 °FCool.1 mph92%29.87 "HgN/A
3:00 AM55 °FCool.1 mph89%29.86 "HgN/A
Weather by CustomWeather, © 2014

See weather overviewHow to use our weather pages